Home   Weather   Kleppestø   Past weeks

Flag for Norway Past Weather in Kleppestø, Norway — Yesterday and Last 2 Weeks

Now
47 °F

Light rain. Overcast.


Feels Like: 42 °F
Forecast: 49 / 51 °F
Wind: 10 mph from South

Location: Bergen / Florida

Current Time: Dec 7, 2016 at 1:31:31 pm

Latest Report: Dec 7, 2016 at 1:00 pm


Visibility: 5 mi

Pressure: 29.79 "Hg

Humidity: 84%

Dew Point: 43 °F

Location of KleppestøLocation

Past Weather in Kleppestø — Graph

°F

Kleppestø Temperature Yesterday

Maximum temperature yesterday: 41 °F (at 6:00 pm)
Minimum temperature yesterday: 32 °F (at 9:00 am)
Average temperature yesterday: 35 °F

High & Low Weather Summary for the Past Weeks

 TemperatureHumidityPressure
High50 °F (Nov 26, 12:00 am)92% (Dec 6, 9:00 am)30.53 "Hg (Dec 6, 9:00 am)
Low28 °F (Nov 28, 5:00 am)59% (Nov 29, 4:00 am)29.57 "Hg (Nov 22, 3:00 pm)
Average41 °F83%30.14 "Hg
* Reported Nov 22 12:00 pm — Dec 7 12:00 pm, Kleppestø, Weather by CustomWeather, © 2016

Note: Actual official high and low records may vary slightly from our data, if they occured in-between our weather recording intervals... More about our weather records

Advertising

Kleppestø Weather History for the Previous 24 Hours

Scroll right to see more
 ConditionsComfort  
Time TempWeatherWind HumidityBarometerVisibility
12:00 pm
Wed, Dec 7
46 °FCool.10 mph86%29.82 "HgN/A
11:00 am46 °FCool.8 mph87%29.85 "HgN/A
10:00 am45 °FLight rain. Overcast.8 mph86%29.87 "Hg5 mi
9:00 am44 °FQuite cool.7 mph86%29.89 "HgN/A
8:00 am44 °FQuite cool.8 mph84%29.91 "HgN/A
7:00 am43 °FLight rain. Overcast.7 mph82%29.93 "Hg7 mi
6:00 am42 °FQuite cool.10 mph79%29.97 "HgN/A
5:00 am42 °FQuite cool.12 mph74%30.01 "HgN/A
4:00 am42 °FQuite cool.9 mph74%30.06 "HgN/A
3:00 am42 °FQuite cool.9 mph75%30.11 "HgN/A
2:00 am42 °FQuite cool.9 mph76%30.14 "HgN/A
1:00 am42 °FQuite cool.8 mph72%30.19 "HgN/A
7:00 pm
Tue, Dec 6
40 °FPassing clouds.6 mph75%30.31 "Hg19 mi
6:00 pm41 °FQuite cool.7 mph72%30.33 "HgN/A
5:00 pm40 °FChilly.3 mph76%30.35 "HgN/A
4:00 pm38 °FPassing clouds.3 mph86%30.35 "Hg19 mi
3:00 pm37 °FChilly.2 mph89%30.36 "HgN/A
2:00 pm35 °FChilly.2 mph90%30.36 "HgN/A
1:00 pm34 °FFog.1 mph91%30.36 "Hg19 mi
Weather by CustomWeather, © 2016

See weather overviewHow to use our weather pages